Weather History for Spartanburg, SC

Change the Weather History Date:

Sunday, October 20, 2013

  Actual Average (KGSP) Record (KGSP)
Temperature  
Mean Temperature 56 °F 60 °F  
Max Temperature 68 °F 72 °F 86 °F (1899)
Min Temperature 44 °F 49 °F 29 °F (1972)
Degree Days  
Heating Degree Days 9 6  
Month to date heating degree days 74  
Since 1 July heating degree days 91  
Cooling Degree Days 0 1  
Month to date cooling degree days 39  
Year to date cooling degree days 1701  
Growing Degree Days 6 (Base 50)    
Moisture  
Dew Point 48 °F    
Average Humidity 79    
Maximum Humidity 100    
Minimum Humidity 43    
Precipitation  
Precipitation 0.00 in 0.10 in 2.40 in (1950)
Month to date precipitation 2.28  
Year to date precipitation 38.22  
Snow  
Snow 0.00 in 0.00 in T in (1913)
Month to date snowfall 0.0  
Since 1 July snowfall 0.0  
Since 1 September snowfall 0.0  
Snow Depth -    
Sea Level Pressure  
Sea Level Pressure 30.03 in    
Wind  
Wind Speed 2 mph (ENE)    
Max Wind Speed 9 mph    
Max Gust Speed -    
Visibility 10 miles    
Events Fog    
T = Trace of Precipitation, MM = Missing Value Source: NWS Daily Summary

Daily Weather History Graph

Daily Weather History Graph

Search for Another Location

Airport:

Trip Planner

Search our weather history database for the weather conditions in past years. The results will help you decide how hot, cold, wet, or windy it might be!

Date:

Astronomy

Oct. 20, 2013 Rise Set
Actual Time 7:38 AM EDT 6:46 PM EDT
Civil Twilight 7:12 AM EDT 7:12 PM EDT
Nautical Twilight 6:42 AM EDT 7:41 PM EDT
Astronomical Twilight 6:13 AM EDT 8:10 PM EDT
Moon 7:58 PM EDT (10/20) 9:10 AM EDT (10/20)
Length of Visible Light 11h 59m
Length of Day
11h 08m
Full, 97% of the Moon is Illuminated
Oct 20
Full
Oct 26
Last Quarter
Nov 3
New
Nov 10
First Quarter
Nov 17
Full

Hourly Weather History & Observations

Time (EDT) Temp. Dew Point Humidity Pressure Visibility Wind Dir Wind Speed Gust Speed Precip Events Conditions
12:15 AM 55.4 °F 53.6 °F 94% 29.94 in 10.0 mi NW 4.6 mph - N/A   Clear
12:35 AM 59.0 °F 51.8 °F 77% 29.94 in 10.0 mi NW 4.6 mph - N/A   Clear
12:55 AM 53.6 °F 51.8 °F 94% 29.95 in 10.0 mi Calm Calm - N/A   Clear
1:15 AM 51.8 °F 51.8 °F 100% 29.95 in 10.0 mi Calm Calm - N/A   Clear
1:35 AM 53.6 °F 53.6 °F 100% 29.96 in 10.0 mi West 4.6 mph - N/A   Clear
1:55 AM 53.6 °F 53.6 °F 100% 29.96 in 7.0 mi Calm Calm - N/A   Clear
2:15 AM 53.6 °F 53.6 °F 100% 29.96 in 10.0 mi Calm Calm - N/A   Clear
2:35 AM 51.8 °F 51.8 °F 100% 29.97 in 10.0 mi Calm Calm - N/A   Clear
2:55 AM 51.8 °F 51.8 °F 100% 29.97 in 10.0 mi Calm Calm - N/A   Clear
3:15 AM 51.8 °F 51.8 °F 100% 29.97 in 5.0 mi Calm Calm - N/A   Clear
3:35 AM 50.0 °F 50.0 °F 100% 29.97 in 10.0 mi Calm Calm - N/A   Clear
3:55 AM 51.8 °F 50.0 °F 94% 29.97 in 10.0 mi Calm Calm - N/A   Clear
4:15 AM 50.0 °F 50.0 °F 100% 29.97 in 10.0 mi Calm Calm - N/A   Clear
4:35 AM 50.0 °F 50.0 °F 100% 29.97 in 10.0 mi Calm Calm - N/A   Clear
4:55 AM 50.0 °F 50.0 °F 100% 29.97 in 10.0 mi Calm Calm - N/A   Clear
5:15 AM 48.2 °F 48.2 °F 100% 29.98 in 10.0 mi Calm Calm - N/A   Clear
5:35 AM 48.2 °F 48.2 °F 100% 29.98 in 10.0 mi Calm Calm - N/A   Clear
5:55 AM 46.4 °F 46.4 °F 100% 29.99 in 5.0 mi Calm Calm - N/A   Clear
6:15 AM 46.4 °F 46.4 °F 100% 30.00 in 5.0 mi Calm Calm - N/A   Clear
6:35 AM 46.4 °F 46.4 °F 100% 30.00 in 7.0 mi Calm Calm - N/A   Clear
6:55 AM 44.6 °F 44.6 °F 100% 30.01 in 0.5 mi Calm Calm - N/A Fog Fog
7:15 AM 46.4 °F 46.4 °F 100% 30.01 in 10.0 mi Calm Calm - N/A   Clear
7:35 AM 46.4 °F 46.4 °F 100% 30.01 in 10.0 mi Calm Calm - N/A   Clear
7:55 AM 46.4 °F 46.4 °F 100% 30.02 in 10.0 mi Calm Calm - N/A   Clear
8:15 AM 44.6 °F 44.6 °F 100% 30.03 in 10.0 mi Calm Calm - N/A   Clear
8:35 AM 46.4 °F 46.4 °F 100% 30.04 in 10.0 mi Calm Calm - N/A   Clear
8:55 AM 50.0 °F 48.2 °F 94% 30.05 in 10.0 mi Calm Calm - N/A   Clear
9:15 AM 51.8 °F 46.4 °F 82% 30.05 in 10.0 mi North 4.6 mph - N/A   Clear
9:35 AM 53.6 °F 46.4 °F 77% 30.06 in 10.0 mi North 4.6 mph - N/A   Clear
9:55 AM 55.4 °F 46.4 °F 72% 30.07 in 10.0 mi NNE 6.9 mph - N/A   Clear
10:15 AM 55.4 °F 44.6 °F 67% 30.07 in 10.0 mi NNE 9.2 mph - N/A   Clear
10:35 AM 57.2 °F 44.6 °F 63% 30.08 in 10.0 mi ENE 6.9 mph - N/A   Clear
10:55 AM 59.0 °F 46.4 °F 63% 30.08 in 10.0 mi East 3.5 mph - N/A   Clear
11:15 AM 59.0 °F 46.4 °F 63% 30.08 in 10.0 mi East 5.8 mph - N/A   Clear
11:35 AM 60.8 °F 44.6 °F 55% 30.09 in 10.0 mi ESE 5.8 mph - N/A   Clear
11:55 AM 60.8 °F 44.6 °F 55% 30.09 in 10.0 mi East 5.8 mph - N/A   Clear
12:15 PM 60.8 °F 44.6 °F 55% 30.08 in 10.0 mi East 5.8 mph - N/A   Clear
12:35 PM 62.6 °F 44.6 °F 52% 30.08 in 10.0 mi ENE 3.5 mph - N/A   Clear
12:55 PM 62.6 °F 44.6 °F 52% 30.08 in 10.0 mi Calm Calm - N/A   Clear
1:15 PM 64.4 °F 44.6 °F 49% 30.07 in 10.0 mi Calm Calm - N/A   Clear
1:35 PM 64.4 °F 44.6 °F 49% 30.07 in 10.0 mi Calm Calm - N/A   Clear
1:55 PM 64.4 °F 44.6 °F 49% 30.06 in 10.0 mi Calm Calm - N/A   Clear
2:15 PM 64.4 °F 46.4 °F 52% 30.05 in 10.0 mi Calm Calm - N/A   Clear
2:35 PM 66.2 °F 46.4 °F 49% 30.04 in 10.0 mi Calm Calm - N/A   Clear
2:55 PM 68.0 °F 46.4 °F 46% 30.04 in 10.0 mi Calm Calm - N/A   Clear
3:15 PM 68.0 °F 44.6 °F 43% 30.03 in 10.0 mi Calm Calm - N/A   Clear
3:35 PM 68.0 °F 44.6 °F 43% 30.03 in 10.0 mi West 4.6 mph - N/A   Clear
3:55 PM 68.0 °F 44.6 °F 43% 30.03 in 10.0 mi East 5.8 mph - N/A   Clear
4:15 PM 68.0 °F 46.4 °F 46% 30.03 in 10.0 mi East 3.5 mph - N/A   Clear
4:35 PM 68.0 °F 46.4 °F 46% 30.03 in 10.0 mi Calm Calm - N/A   Clear
4:55 PM 68.0 °F 46.4 °F 46% 30.03 in 10.0 mi ESE 4.6 mph - N/A   Clear
5:15 PM 68.0 °F 46.4 °F 46% 30.03 in 10.0 mi Calm Calm - N/A   Clear
5:35 PM 68.0 °F 46.4 °F 46% 30.03 in 10.0 mi Calm Calm - N/A   Clear
5:55 PM 68.0 °F 46.4 °F 46% 30.03 in 10.0 mi ESE 3.5 mph - N/A   Clear
6:15 PM 68.0 °F 46.4 °F 46% 30.03 in 10.0 mi Calm Calm - N/A   Clear
6:35 PM 64.4 °F 50.0 °F 59% 30.04 in 10.0 mi Calm Calm - N/A   Clear
6:55 PM 60.8 °F 51.8 °F 72% 30.04 in 10.0 mi Calm Calm - N/A   Clear
7:15 PM 59.0 °F 51.8 °F 77% 30.05 in 10.0 mi Calm Calm - N/A   Clear
7:35 PM 59.0 °F 51.8 °F 77% 30.05 in 10.0 mi Calm Calm - N/A   Clear
7:55 PM 55.4 °F 51.8 °F 88% 30.06 in 10.0 mi Calm Calm - N/A   Clear
8:15 PM 55.4 °F 51.8 °F 88% 30.06 in 10.0 mi Calm Calm - N/A   Clear
8:35 PM 55.4 °F 51.8 °F 88% 30.07 in 10.0 mi Calm Calm - N/A   Clear
8:55 PM 53.6 °F 51.8 °F 94% 30.07 in 10.0 mi Calm Calm - N/A   Clear
9:15 PM 53.6 °F 51.8 °F 94% 30.07 in 10.0 mi Calm Calm - N/A   Clear
9:35 PM 53.6 °F 51.8 °F 94% 30.08 in 10.0 mi Calm Calm - N/A   Clear
9:55 PM 51.8 °F 50.0 °F 94% 30.08 in 10.0 mi Calm Calm - N/A   Clear
10:15 PM 51.8 °F 50.0 °F 94% 30.09 in 10.0 mi Calm Calm - N/A   Clear
10:35 PM 51.8 °F 50.0 °F 94% 30.09 in 10.0 mi Calm Calm - N/A   Clear
10:55 PM 51.8 °F 50.0 °F 94% 30.09 in 10.0 mi Calm Calm - N/A   Clear
11:15 PM 51.8 °F 50.0 °F 94% 30.09 in 10.0 mi Calm Calm - N/A   Clear
11:35 PM 50.0 °F 50.0 °F 100% 30.09 in 10.0 mi Calm Calm - N/A   Clear
11:55 PM 50.0 °F 50.0 °F 100% 30.09 in 10.0 mi Calm Calm - N/A   Clear